Vorticity
6 8 9 8 -4 1 7 1 8 8 6 -5 3 -6 5 4 2 3 13 4 3 4 4 2 2 7 10 9 3 6 4 2 4 4 3 4 4 3 4 4 1 3 5 5 4 4 5 6 6
7 8 9 11 9 -3 21 11 11 12 5 7 7 -1 7 1 1 -1 1 6 3 4 3 4 4 4 3 4 8 6 7 7 5 7 5 5 5 4 4 2 1 3 4 3 4 3 3 5 5
5 13 1 9 -3 24 18 29 0 -0 12 1 5 -2 7 13 5 3 5 3 2 6 4 5 6 6 6 6 5 4 3 5 5 7 6 5 5 5 5 4 4 4 4 1 2 3 3 4 4
8 10 -1 2 -10 -2 29 2 -1 13 5 2 5 4 6 2 5 5 5 1 4 6 6 7 7 8 7 7 7 6 6 6 5 4 3 4 5 2 4 3 5 5 4 4 3 2 3 2 3
11 8 -11 10 1 14 9 1 15 6 4 3 1 2 1 6 5 6 2 3 6 6 6 7 10 11 10 9 9 8 8 9 9 9 8 7 6 4 4 6 5 3 2 3 2 2 4 3 3
7 -0 4 4 8 4 2 8 7 2 7 7 3 1 2 3 6 3 3 5 6 5 12 10 5 4 4 4 3 4 4 4 4 5 5 5 6 7 7 7 7 7 6 6 6 5 5 5 5
3 -8 4 4 1 10 3 9 1 3 6 3 -1 7 8 6 3 4 6 5 8 12 5 3 3 2 3 4 5 5 5 6 6 6 6 6 5 5 5 5 5 6 5 6 6 7 7 7 7
-1 -5 10 41 2 10 8 7 -5 5 4 8 6 3 7 15 7 7 6 9 10 3 3 3 2 4 5 6 6 6 6 6 6 6 6 6 6 7 7 6 7 6 6 6 6 7 6 6 7
5 -11 12 6 20 1 6 7 2 3 3 3 3 2 1 2 4 5 7 8 5 3 3 3 4 5 5 5 5 6 7 7 6 7 7 7 7 7 7 6 7 6 6 7 6 5 6 6 7
1 -3 17 -4 3 4 13 6 7 4 3 4 3 4 3 4 5 7 8 6 4 4 3 4 5 5 5 5 6 6 6 6 7 8 8 9 10 10 9 9 8 8 8 7 7 8 8 7 7
6 -3 12 5 4 1 9 2 8 4 5 5 5 4 4 6 8 9 8 6 4 3 4 4 5 4 5 6 6 5 7 8 9 10 10 8 8 7 7 7 8 8 9 10 10 10 11 12 12
3 -7 3 4 4 4 7 5 5 7 1 4 11 5 7 7 9 9 6 5 3 4 4 4 4 5 6 5 5 6 7 9 9 8 7 6 6 7 7 7 7 8 8 8 8 9 10 13 14
3 2 -1 7 6 7 9 8 5 9 3 4 4 6 7 8 8 6 5 4 3 4 3 3 4 6 5 5 6 8 9 9 7 6 6 5 6 7 8 8 9 9 10 11 12 11 9 6 6
6 10 4 4 5 7 6 6 6 7 5 6 6 6 5 5 5 6 4 4 4 3 3 3 5 5 5 6 8 10 9 7 7 7 7 7 9 10 11 11 9 9 9 9 8 7 7 8 8
11 8 4 6 7 7 6 6 6 9 6 5 4 5 6 6 7 7 5 6 4 3 3 4 5 5 6 7 9 9 7 7 7 7 8 11 15 13 10 9 9 11 10 8 7 7 8 8 7
10 3 6 9 7 7 5 -2 12 12 10 7 7 6 7 7 7 7 6 4 4 3 4 4 6 6 6 9 10 7 7 6 7 8 11 10 8 7 9 9 8 8 9 9 9 9 8 9 10
8 27 5 7 7 0 5 13 9 11 5 6 10 13 9 13 8 5 4 3 3 3 4 5 5 6 10 12 7 6 6 5 6 8 10 8 7 8 9 9 8 8 8 9 10 9 9 9 9
11 19 12 8 23 6 4 3 1 4 10 11 9 5 6 5 4 4 5 5 5 6 5 4 6 10 12 6 6 5 6 7 8 10 10 8 7 8 8 8 8 9 9 9 9 9 8 7 8
24 6 21 10 -1 5 7 7 13 14 7 8 7 6 5 4 6 5 3 2 9 8 8 9 12 12 6 7 5 6 6 10 12 14 11 8 8 8 8 8 10 10 9 9 10 11 11 10 9
7 6 2 6 6 7 8 13 14 10 8 6 5 5 5 5 3 5 10 11 6 7 12 13 13 7 7 5 7 9 13 13 12 10 8 8 8 8 9 9 9 9 9 10 9 9 8 7 6
9 -1 7 3 6 8 13 30 23 11 9 11 13 12 9 6 8 6 15 19 16 18 17 15 7 7 5 7 9 9 9 10 9 9 9 9 9 9 9 8 7 7 7 7 6 6 7 7 7
3 6 6 6 10 4 -8 4 1 14 10 17 21 19 15 12 9 7 9 11 13 13 10 8 4 5 6 8 11 11 10 8 9 9 9 9 8 8 8 7 7 7 7 7 6 7 6 6 6
10 8 7 6 6 9 16 12 23 16 13 3 7 6 5 6 10 12 12 9 8 7 5 5 5 6 8 6 5 10 12 11 10 8 8 8 8 8 8 7 7 7 7 7 7 6 6 6 6
7 7 8 17 16 14 8 2 0 4 -6 7 -1 3 16 15 13 11 9 9 8 8 6 5 5 6 3 5 6 9 14 14 11 9 8 8 8 9 9 9 8 7 6 6 7 6 7 7 7
7 8 11 6 8 7 13 10 -10 4 10 3 12 16 7 5 9 11 9 5 -0 -3 1 4 6 6 6 5 5 9 10 12 13 9 9 8 8 9 9 8 8 8 8 8 8 8 8 8 8
8 10 5 8 10 2 -1 18 13 12 3 15 9 1 7 4 10 10 5 3 3 4 7 8 9 10 11 10 8 6 10 10 11 9 10 8 8 8 8 8 9 9 9 9 9 9 9 9 9
14 6 11 4 10 16 9 11 8 9 13 3 7 -3 -5 10 15 16 18 18 17 15 15 14 13 10 12 12 10 6 7 9 8 9 11 11 9 8 8 8 9 9 9 10 10 10 10 10 10
-2 9 9 9 8 11 22 5 -13 7 2 2 3 -11 -1 24 14 4 10 15 14 12 10 14 13 11 16 14 10 8 6 9 5 2 5 9 9 8 7 7 7 8 8 9 8 9 10 10 11
13 4 3 2 2 7 9 13 11 19 1 4 7 -16 -2 22 -3 -8 -6 14 16 12 13 12 12 13 10 13 12 8 7 10 2 -1 6 9 10 9 10 8 7 8 8 9 8 9 10 10 11
8 -2 14 -2 19 4 1 15 10 18 30 -10 6 -8 2 20 5 -4 -3 11 15 16 11 11 10 10 13 13 13 11 11 4 2 7 9 10 10 9 8 7 7 7 9 10 7 9 11 12 12
Height
3151 3153 3156 3159 3166 3163 3162 3164 3166 3166 3168 3169 3171 3172 3176 3177 3178 3181 3179 3178 3179 3179 3180 3180 3179 3178 3178 3178 3178 3178 3178 3178 3178 3177 3177 3176 3176 3176 3175 3175 3174 3174 3173 3172 3171 3170 3169 3168 3168
3150 3153 3156 3157 3162 3161 3162 3162 3165 3166 3168 3170 3172 3172 3173 3176 3177 3177 3178 3178 3178 3179 3179 3179 3178 3177 3177 3177 3176 3176 3176 3176 3176 3176 3175 3175 3175 3174 3174 3173 3172 3172 3172 3171 3170 3169 3168 3167 3166
3148 3153 3155 3158 3159 3161 3160 3161 3162 3163 3167 3169 3171 3172 3173 3174 3176 3177 3177 3177 3177 3179 3178 3178 3177 3176 3176 3175 3175 3175 3174 3174 3174 3174 3174 3174 3173 3172 3172 3171 3170 3169 3169 3169 3169 3168 3167 3167 3166
3147 3151 3156 3156 3157 3161 3161 3160 3161 3164 3167 3169 3170 3172 3173 3174 3176 3176 3176 3176 3177 3178 3177 3176 3176 3175 3175 3174 3173 3173 3172 3172 3172 3172 3171 3171 3171 3170 3169 3169 3168 3168 3167 3167 3167 3166 3165 3164 3164
3145 3149 3153 3156 3156 3159 3161 3160 3162 3164 3166 3169 3169 3170 3172 3173 3175 3175 3176 3175 3175 3175 3175 3174 3174 3173 3173 3173 3172 3171 3171 3170 3170 3169 3168 3168 3168 3167 3166 3166 3165 3164 3164 3163 3163 3162 3161 3160 3160
3144 3147 3152 3154 3155 3157 3158 3160 3162 3163 3165 3168 3168 3169 3171 3172 3174 3174 3174 3174 3174 3173 3173 3173 3173 3172 3172 3171 3171 3170 3169 3168 3167 3166 3165 3165 3164 3163 3162 3161 3160 3160 3160 3159 3158 3157 3156 3155 3155
3140 3146 3150 3154 3154 3156 3157 3159 3162 3162 3165 3166 3167 3167 3170 3171 3172 3172 3172 3172 3172 3171 3172 3172 3172 3171 3170 3169 3168 3167 3166 3165 3164 3163 3162 3161 3160 3159 3158 3157 3156 3156 3155 3154 3153 3153 3152 3152 3151
3139 3145 3148 3152 3152 3156 3156 3159 3160 3162 3163 3167 3167 3165 3168 3171 3170 3170 3170 3170 3170 3170 3170 3170 3169 3169 3168 3167 3167 3165 3164 3162 3161 3160 3159 3157 3156 3155 3154 3153 3153 3151 3150 3149 3149 3148 3147 3147 3146
3139 3144 3146 3149 3152 3153 3156 3158 3160 3161 3163 3164 3165 3165 3167 3168 3169 3169 3169 3169 3169 3169 3169 3168 3168 3167 3166 3165 3163 3162 3161 3159 3157 3156 3155 3153 3152 3151 3150 3148 3147 3145 3144 3144 3143 3142 3141 3141 3141
3138 3142 3143 3146 3149 3151 3155 3157 3160 3162 3162 3164 3165 3165 3166 3167 3167 3167 3167 3167 3167 3167 3167 3166 3165 3165 3163 3162 3160 3159 3157 3155 3153 3152 3150 3149 3147 3146 3145 3143 3142 3141 3140 3138 3136 3136 3135 3134 3133
3136 3138 3141 3146 3148 3150 3153 3154 3157 3159 3160 3162 3163 3164 3165 3165 3165 3165 3164 3164 3165 3165 3165 3164 3163 3162 3160 3158 3157 3155 3153 3151 3149 3148 3146 3144 3143 3141 3140 3138 3136 3135 3134 3133 3131 3130 3129 3128 3126
3136 3138 3141 3145 3147 3150 3152 3153 3156 3157 3158 3160 3161 3162 3163 3162 3162 3162 3162 3162 3163 3162 3162 3161 3160 3159 3157 3155 3153 3152 3149 3147 3145 3144 3142 3140 3138 3137 3135 3133 3132 3130 3128 3126 3125 3123 3122 3121 3120
3133 3137 3141 3144 3146 3149 3151 3153 3154 3156 3157 3159 3160 3160 3160 3160 3160 3160 3160 3160 3159 3159 3159 3158 3156 3155 3153 3151 3149 3148 3145 3143 3141 3139 3137 3135 3133 3131 3129 3127 3126 3124 3122 3120 3119 3117 3116 3115 3114
3131 3136 3140 3142 3145 3147 3149 3151 3152 3154 3155 3157 3158 3158 3158 3157 3157 3158 3158 3157 3157 3156 3155 3154 3152 3151 3149 3147 3145 3143 3141 3139 3136 3134 3132 3130 3128 3126 3124 3122 3121 3119 3117 3115 3113 3112 3111 3110 3109
3131 3135 3137 3140 3143 3146 3148 3150 3151 3152 3154 3154 3155 3155 3155 3155 3155 3155 3155 3155 3154 3153 3152 3150 3149 3147 3144 3143 3140 3138 3137 3136 3133 3130 3127 3125 3123 3121 3119 3118 3116 3115 3113 3111 3109 3108 3106 3104 3102
3132 3136 3137 3139 3141 3144 3146 3147 3148 3150 3151 3152 3152 3153 3153 3152 3152 3151 3151 3151 3150 3148 3147 3146 3144 3143 3140 3138 3136 3134 3132 3131 3129 3126 3124 3121 3119 3118 3116 3114 3112 3110 3108 3106 3104 3102 3100 3097 3095
3133 3134 3135 3139 3140 3142 3144 3145 3146 3147 3148 3149 3149 3148 3148 3148 3148 3147 3147 3147 3146 3144 3143 3141 3140 3139 3137 3134 3132 3130 3128 3126 3124 3122 3119 3117 3115 3113 3111 3109 3107 3105 3102 3100 3099 3097 3094 3092 3090
3131 3135 3136 3137 3140 3141 3142 3144 3144 3144 3145 3145 3145 3145 3145 3144 3144 3144 3144 3142 3141 3140 3138 3137 3136 3134 3132 3130 3128 3126 3125 3123 3120 3117 3115 3113 3111 3108 3106 3104 3101 3099 3097 3095 3094 3092 3088 3085 3084
3132 3135 3136 3137 3139 3140 3140 3141 3142 3142 3140 3141 3141 3142 3141 3139 3137 3136 3138 3138 3137 3134 3134 3133 3131 3130 3128 3126 3124 3122 3120 3117 3115 3112 3110 3108 3106 3104 3101 3099 3097 3095 3093 3090 3089 3087 3085 3080 3077
3131 3134 3136 3138 3138 3139 3138 3137 3138 3137 3138 3137 3137 3137 3137 3136 3134 3131 3133 3133 3131 3129 3129 3128 3127 3126 3124 3122 3120 3118 3115 3112 3110 3108 3106 3104 3101 3099 3097 3096 3093 3091 3088 3086 3083 3081 3080 3076 3071
3131 3134 3135 3138 3137 3137 3136 3135 3134 3134 3134 3133 3132 3133 3134 3134 3134 3128 3128 3128 3126 3125 3124 3123 3123 3122 3121 3119 3116 3114 3111 3108 3105 3103 3101 3099 3097 3095 3093 3091 3089 3087 3084 3081 3078 3077 3075 3074 3070
3131 3133 3135 3135 3136 3136 3137 3135 3134 3132 3131 3130 3130 3131 3131 3130 3129 3126 3126 3124 3123 3122 3121 3121 3120 3119 3117 3115 3112 3109 3106 3103 3101 3099 3097 3095 3093 3091 3088 3087 3085 3082 3079 3077 3074 3071 3069 3067 3066
3130 3132 3133 3133 3134 3135 3134 3137 3133 3132 3128 3128 3127 3127 3128 3127 3126 3125 3123 3122 3121 3120 3119 3118 3117 3115 3113 3110 3107 3104 3101 3099 3096 3095 3093 3091 3089 3087 3085 3083 3080 3079 3076 3073 3070 3068 3065 3062 3060
3129 3131 3132 3132 3132 3134 3132 3135 3132 3130 3128 3126 3126 3125 3125 3124 3123 3122 3121 3120 3119 3118 3116 3114 3113 3111 3109 3106 3103 3099 3096 3094 3091 3089 3087 3085 3083 3082 3080 3078 3075 3072 3069 3067 3065 3062 3059 3056 3053
3129 3130 3132 3134 3133 3132 3131 3131 3127 3126 3126 3125 3124 3123 3123 3122 3121 3119 3118 3117 3116 3114 3113 3110 3108 3106 3103 3101 3098 3095 3093 3089 3087 3084 3083 3081 3078 3077 3075 3072 3070 3068 3065 3063 3060 3057 3054 3051 3048
3127 3129 3130 3134 3134 3130 3128 3125 3123 3123 3123 3123 3123 3123 3122 3120 3119 3118 3116 3114 3112 3110 3107 3104 3102 3100 3097 3095 3093 3091 3088 3086 3083 3081 3079 3077 3075 3072 3070 3067 3065 3062 3059 3057 3054 3051 3048 3044 3041
3126 3128 3129 3129 3129 3129 3123 3122 3121 3119 3120 3121 3121 3121 3120 3119 3117 3115 3113 3110 3107 3104 3101 3098 3095 3093 3091 3089 3088 3086 3084 3082 3079 3077 3074 3072 3069 3066 3064 3062 3059 3056 3053 3050 3047 3044 3041 3038 3035
3125 3127 3128 3128 3131 3129 3120 3119 3117 3117 3118 3119 3119 3119 3117 3115 3113 3111 3108 3104 3101 3097 3093 3091 3089 3086 3084 3082 3081 3080 3079 3077 3075 3072 3069 3065 3062 3060 3057 3055 3053 3050 3047 3044 3040 3037 3034 3031 3029
3123 3123 3125 3127 3127 3127 3126 3118 3117 3117 3117 3117 3116 3115 3114 3111 3109 3106 3104 3101 3097 3093 3089 3086 3084 3081 3079 3076 3074 3073 3072 3070 3069 3067 3063 3060 3057 3054 3052 3049 3046 3043 3040 3037 3034 3031 3028 3025 3022
3119 3120 3122 3124 3125 3124 3124 3119 3116 3117 3116 3115 3113 3111 3109 3106 3103 3102 3099 3095 3091 3088 3085 3082 3080 3077 3074 3071 3069 3067 3066 3064 3061 3058 3055 3052 3049 3046 3044 3041 3039 3036 3034 3031 3028 3024 3021 3018 3015